EW5822 Weather Reports


Display with metric or nautical units.
time (UTC)temp
F
wind
direction
speed
MPH
gust
MPH
rain 1hr
in
rain 24hr
in
rain mn
in
humidity
%
barometer
mb
20260905182016 99 142 10.0 19.0 0.00 0.00 0.00 46 1012.4
20260905180903 98 136 11.0 16.0 0.00 0.00 0.00 47 1012.6
20260905180004 98 128 11.0 18.0 0.00 0.00 0.00 48 1012.7
20260905175403 99 138 12.0 18.0 0.00 0.00 0.00 48 1012.8
20260905174715 98 151 10.0 16.0 0.00 0.00 0.00 48 1012.8
20260905173603 98 153 11.0 21.0 0.00 0.00 0.00 47 1012.9
20260905172915 97 170 11.0 20.0 0.00 0.00 0.00 48 1012.9
20260905171803 97 142 11.0 18.0 0.00 0.00 0.00 47 1013.1
20260905171114 96 139 11.0 16.0 0.00 0.00 0.00 48 1013.1
20260905170217 96 161 9.0 17.0 0.00 0.00 0.00 49 1013.1
20260905165613 96 162 10.0 17.0 0.00 0.00 0.00 49 1013.1
20260905164716 95 159 8.0 14.0 0.00 0.00 0.00 50 1013.1
20260905163813 95 146 9.0 13.0 0.00 0.00 0.00 50 1013.1
20260905162915 95 157 8.0 16.0 0.00 0.00 0.00 51 1013.1
20260905162013 95 178 9.0 15.0 0.00 0.00 0.00 51 1013.0
20260905161115 94 173 10.0 17.0 0.00 0.00 0.00 51 1012.9
20260905160003 93 174 10.0 15.0 0.00 0.00 0.00 54 1013.0
20260905155403 93 178 10.0 18.0 0.00 0.00 0.00 53 1012.9
20260905154716 94 185 10.0 17.0 0.00 0.00 0.00 51 1012.9
20260905153813 93 192 8.0 14.0 0.00 0.00 0.00 52 1012.8
20260905152916 93 181 9.0 15.0 0.00 0.00 0.00 52 1012.7
20260905151803 92 163 12.0 19.0 0.00 0.00 0.00 55 1012.6
20260905150903 92 164 12.0 16.0 0.00 0.00 0.00 56 1012.6
20260905150003 91 172 9.0 14.0 0.00 0.00 0.00 57 1012.5
20260905145614 90 173 8.0 13.0 0.00 0.00 0.00 58 1012.4
20260905144717 89 168 8.0 11.0 0.00 0.00 0.00 60 1012.4
20260905143814 88 163 9.0 14.0 0.00 0.00 0.00 61 1012.4
20260905142917 86 153 8.0 11.0 0.00 0.00 0.00 65 1012.4
20260905142014 85 140 6.0 10.0 0.00 0.00 0.00 69 1012.3
20260905141116 84 135 6.0 9.0 0.00 0.00 0.00 71 1012.2
20260905140004 83 131 7.0 10.0 0.00 0.00 0.00 72 1012.2
20260905135615 82 128 7.0 10.0 0.00 0.00 0.00 73 1012.2
20260905134712 81 125 8.0 11.0 0.00 0.00 0.00 75 1012.2
20260905133815 80 122 8.0 11.0 0.00 0.00 0.00 75 1012.1
20260905132917 79 110 6.0 10.0 0.00 0.00 0.00 78 1012.1
20260905132014 78 117 5.0 8.0 0.00 0.00 0.00 80 1011.9
20260905130903 77 122 5.0 7.0 0.00 0.00 0.00 81 1011.8
20260905130003 77 123 5.0 7.0 0.00 0.00 0.00 82 1011.7
20260905125616 77 123 5.0 7.0 0.00 0.00 0.00 82 1011.7
20260905124503 76 123 5.0 7.0 0.00 0.00 0.00 82 1011.5
20260905123603 76 114 4.0 7.0 0.00 0.00 0.00 83 1011.4
20260905122913 75 115 5.0 7.0 0.00 0.00 0.00 83 1011.4
20260905121803 75 113 7.0 8.0 0.00 0.00 0.00 83 1011.3
20260905120904 75 117 6.0 8.0 0.00 0.00 0.00 83 1011.2
20260905120003 75 120 5.0 7.0 0.00 0.00 0.00 83 1011.3
20260905115403 75 120 6.0 8.0 0.00 0.00 0.00 83 1011.1
20260905114714 75 119 6.0 8.0 0.00 0.00 0.00 83 1011.0
20260905113816 75 115 6.0 8.0 0.00 0.00 0.00 83 1011.0
20260905112703 75 115 6.0 7.0 0.00 0.00 0.00 83 1010.9
20260905112016 75 116 7.0 8.0 0.00 0.00 0.00 83 1010.9
20260905110903 75 122 7.0 9.0 0.00 0.00 0.00 84 1010.9
20260905110008 75 123 7.0 9.0 0.00 0.00 0.00 83 1011.0
20260905105617 75 123 7.0 9.0 0.00 0.00 0.00 84 1010.9
20260905104714 75 125 6.0 8.0 0.00 0.00 0.00 84 1011.0
20260905103603 75 127 7.0 8.0 0.00 0.00 0.00 83 1010.9
20260905102914 75 129 7.0 9.0 0.00 0.00 0.00 83 1011.0
20260905102016 76 130 6.0 9.0 0.00 0.00 0.00 83 1011.0
20260905100903 76 128 7.0 9.0 0.00 0.00 0.00 82 1011.0
20260905100216 76 130 8.0 10.0 0.00 0.00 0.00 82 1011.0
20260905095403 76 131 8.0 10.0 0.00 0.00 0.00 82 1011.1
20260905094715 76 130 9.0 11.0 0.00 0.00 0.00 82 1011.2
20260905093603 76 123 8.0 10.0 0.00 0.00 0.00 82 1011.3
20260905092915 76 119 8.0 10.0 0.00 0.00 0.00 82 1011.2
20260905091803 76 112 9.0 10.0 0.00 0.00 0.00 82 1011.3
20260905090904 76 115 8.0 9.0 0.00 0.00 0.00 82 1011.4
20260905090003 76 117 8.0 10.0 0.00 0.00 0.00 82 1011.4
20260905085403 76 117 8.0 10.0 0.00 0.00 0.00 82 1011.5
20260905084716 76 118 7.0 8.0 0.00 0.00 0.00 82 1011.5
20260905083813 76 115 7.0 8.0 0.00 0.00 0.00 82 1011.6
20260905082915 77 111 8.0 9.0 0.00 0.00 0.00 81 1011.6
20260905082013 77 114 8.0 9.0 0.00 0.00 0.00 81 1011.8
20260905081115 77 113 8.0 9.0 0.00 0.00 0.00 81 1011.8
20260905080003 77 121 8.0 10.0 0.00 0.00 0.00 82 1011.7
20260905075403 77 123 8.0 9.0 0.00 0.00 0.00 82 1011.7
20260905074503 77 125 8.0 10.0 0.00 0.00 0.00 82 1011.7
20260905073603 76 125 9.0 10.0 0.00 0.00 0.00 82 1011.6
20260905072916 76 123 9.0 10.0 0.00 0.00 0.00 82 1011.5
20260905071803 76 114 8.0 9.0 0.00 0.00 0.00 82 1011.5
20260905071116 76 98 8.0 9.0 0.00 0.00 0.00 81 1011.5
20260905070213 76 17 7.0 8.0 0.00 0.00 0.00 81 1011.6
20260905065403 77 3 6.0 8.0 0.00 0.00 0.00 81 1011.7
20260905064717 77 3 7.0 9.0 0.00 0.00 0.00 80 1011.7
20260905063814 77 7 9.0 10.0 0.00 0.00 0.00 79 1011.6
20260905062704 78 14 9.0 11.0 0.00 0.00 0.00 79 1011.4
20260905062014 78 14 8.0 10.0 0.00 0.00 0.00 79 1011.4
20260905061116 78 17 7.0 9.0 0.00 0.00 0.00 78 1011.4
20260905060003 78 6 7.0 8.0 0.00 0.00 0.00 78 1011.5
20260905055403 78 52 7.0 9.0 0.00 0.00 0.00 77 1011.5
20260905054503 79 103 9.0 11.0 0.00 0.00 0.00 77 1011.5
20260905053603 79 112 10.0 11.0 0.00 0.00 0.00 77 1011.4
20260905052917 79 111 0.0 10.0 0.00 0.00 0.00 77 1011.4
20260905051803 79 122 0.0 7.0 0.00 0.00 0.00 77 1011.5
20260905051117 79 122 0.0 7.0 0.00 0.00 0.00 77 1011.5
20260905050214 79 121 7.0 9.0 0.00 0.00 0.00 77 1011.5
20260905045403 79 116 9.0 10.0 0.00 0.00 0.00 77 1011.4
20260905044713 80 84 9.0 10.0 0.00 0.00 0.00 76 1011.3
20260905043603 80 17 8.0 10.0 0.00 0.00 0.00 76 1011.3
20260905042703 80 18 8.0 10.0 0.00 0.00 0.00 75 1011.2
20260905042015 80 35 8.0 10.0 0.00 0.00 0.00 75 1011.2
20260905041117 80 36 8.0 10.0 0.00 0.00 0.00 75 1011.1
20260905040004 80 26 8.0 9.0 0.00 0.00 0.00 75 1011.1
20260905035616 80 36 8.0 9.0 0.00 0.00 0.00 74 1011.1
20260905034503 81 24 7.0 9.0 0.00 0.00 0.00 72 1011.1
20260905033603 81 49 7.0 8.0 0.00 0.00 0.00 71 1011.2
20260905032703 82 71 7.0 9.0 0.00 0.00 0.00 71 1011.2
20260905031803 82 50 9.0 10.0 0.00 0.00 0.00 70 1011.0
20260905030903 82 112 10.0 12.0 0.00 0.00 0.00 69 1010.9
20260905030003 83 113 10.0 12.0 0.00 0.00 0.00 69 1010.8
20260905025617 83 109 10.0 12.0 0.00 0.00 0.00 69 1010.8
20260905024503 83 57 10.0 12.0 0.00 0.00 0.00 68 1010.6
20260905023603 84 60 9.0 11.0 0.00 0.00 0.00 68 1010.5
20260905022703 83 55 9.0 10.0 0.00 0.00 0.00 68 1010.5
20260905022016 84 102 9.0 11.0 0.00 0.00 0.00 68 1010.3
20260905021114 84 60 8.0 11.0 0.00 0.00 0.00 67 1010.2
20260905020216 84 65 8.0 10.0 0.00 0.00 0.00 67 1010.1
20260905015403 84 92 8.0 10.0 0.00 0.00 0.00 67 1010.1
20260905014503 85 113 9.0 10.0 0.00 0.00 0.00 67 1010.0
20260905013817 85 117 8.0 10.0 0.00 0.00 0.00 67 1010.0
20260905012703 86 107 8.0 10.0 0.00 0.00 0.00 66 1009.9
20260905012017 86 95 8.0 10.0 0.00 0.00 0.00 65 1010.0
20260905010903 88 106 9.0 10.0 0.00 0.00 0.00 63 1010.0
20260905010003 88 112 8.0 11.0 0.00 0.00 0.00 62 1010.1
20260905005613 89 112 8.0 11.0 0.00 0.00 0.00 61 1010.0
20260905004716 90 113 7.0 9.0 0.00 0.00 0.00 60 1010.0
20260905003813 90 112 7.0 9.0 0.00 0.00 0.00 59 1010.0
20260905002703 92 118 8.0 10.0 0.00 0.00 0.00 56 1010.0
20260905002013 93 120 9.0 11.0 0.00 0.00 0.00 54 1009.9
20260905001115 94 120 9.0 12.0 0.00 0.00 0.00 53 1009.9
20260905000003 95 124 10.0 13.0 0.00 0.00 0.00 51 1009.8
20260904235403 95 123 10.0 14.0 0.00 0.00 0.00 50 1009.7
20260904234503 96 123 11.0 15.0 0.00 0.00 0.00 49 1009.7
20260904233814 96 121 12.0 16.0 0.00 0.00 0.00 48 1009.8
20260904232703 97 125 12.0 17.0 0.00 0.00 0.00 47 1009.9
20260904231803 97 124 13.0 18.0 0.00 0.00 0.00 47 1010.0
20260904230903 98 123 10.0 14.0 0.00 0.00 0.00 47 1010.1
20260904230213 98 119 12.0 16.0 0.00 0.00 0.00 47 1010.0
20260904225614 98 122 13.0 18.0 0.00 0.00 0.00 46 1010.1
20260904224717 98 129 14.0 19.0 0.00 0.00 0.00 46 1010.1
20260904223603 98 125 15.0 19.0 0.00 0.00 0.00 45 1009.9
20260904222703 98 128 14.0 20.0 0.00 0.00 0.00 44 1010.0
20260904221804 98 123 14.0 21.0 0.00 0.00 0.00 46 1010.0
20260904220903 99 127 14.0 20.0 0.00 0.00 0.00 46 1010.0
20260904220213 98 118 14.0 20.0 0.00 0.00 0.00 46 1010.1
20260904215615 99 105 14.0 20.0 0.00 0.00 0.00 46 1010.1
20260904214503 99 104 13.0 18.0 0.00 0.00 0.00 44 1010.1
20260904213603 99 123 12.0 18.0 0.00 0.00 0.00 44 1010.2
20260904212703 99 101 13.0 19.0 0.00 0.00 0.00 45 1010.2
20260904212014 99 102 14.0 19.0 0.00 0.00 0.00 44 1010.2
20260904211117 99 109 13.0 19.0 0.00 0.00 0.00 45 1010.3
20260904210214 99 120 13.0 17.0 0.00 0.00 0.00 46 1010.4
20260904205616 99 122 11.0 17.0 0.00 0.00 0.00 46 1010.4
20260904204713 99 130 11.0 18.0 0.00 0.00 0.00 43 1010.5
20260904203604 99 120 12.0 18.0 0.00 0.00 0.00 46 1010.6
20260904202913 99 121 13.0 18.0 0.00 0.00 0.00 47 1010.6
20260904202015 99 120 14.0 19.0 0.00 0.00 0.00 48 1010.6
20260904201117 99 115 14.0 18.0 0.00 0.00 0.00 48 1010.6
20260904200215 98 118 14.0 20.0 0.00 0.00 0.00 49 1010.7
20260904195616 99 114 13.0 20.0 0.00 0.00 0.00 49 1010.8
20260904194503 98 121 11.0 18.0 0.00 0.00 0.00 50 1010.7
20260904193816 99 146 11.0 19.0 0.00 0.00 0.00 49 1010.8
20260904192913 98 127 12.0 18.0 0.00 0.00 0.00 48 1010.8
20260904192016 98 137 12.0 19.0 0.00 0.00 0.00 49 1010.8
20260904191113 98 139 10.0 18.0 0.00 0.00 0.00 51 1010.8
20260904190003 98 121 12.0 18.0 0.00 0.00 0.00 51 1010.8
20260904185617 98 129 12.0 17.0 0.00 0.00 0.00 50 1010.9
20260904184714 97 142 12.0 18.0 0.00 0.00 0.00 52 1010.9
20260904183817 97 132 11.0 16.0 0.00 0.00 0.00 53 1011.1